TimeCDT,TemperatureF,Dew PointF,Humidity,Sea Level PressureIn,VisibilityMPH,Wind Direction,Wind SpeedMPH,Gust SpeedMPH,PrecipitationIn,Events,Conditions,WindDirDegrees,DateUTC
12:54 AM,-0.0,-5.1,79,30.49,10.0,SW,8.1,-,N/A,,Clear,230,2013-03-20 05:54:00
1:54 AM,-0.9,-6.0,79,30.49,10.0,WSW,9.2,-,N/A,,Clear,240,2013-03-20 06:54:00
2:54 AM,-0.9,-5.1,83,30.49,10.0,SW,10.4,-,N/A,,Clear,230,2013-03-20 07:54:00
3:54 AM,-2.0,-6.0,83,30.48,10.0,SW,10.4,-,N/A,,Clear,230,2013-03-20 08:54:00
4:54 AM,-2.9,-7.1,82,30.46,10.0,SW,9.2,-,N/A,,Clear,230,2013-03-20 09:54:00
5:54 AM,-2.9,-7.1,82,30.46,10.0,SW,9.2,-,N/A,,Clear,230,2013-03-20 10:54:00
6:54 AM,-2.0,-6.0,83,30.45,10.0,WSW,5.8,-,N/A,,Clear,240,2013-03-20 11:54:00
7:54 AM,-5.1,-9.0,83,30.46,10.0,Calm,Calm,-,N/A,,Clear,0,2013-03-20 12:54:00
8:54 AM,-5.1,-8.0,87,30.45,9.0,Calm,Calm,-,N/A,,Clear,0,2013-03-20 13:54:00
9:54 AM,1.0,-4.0,79,30.44,8.0,SSW,3.5,-,N/A,,Clear,210,2013-03-20 14:54:00
10:54 AM,7.0,-0.0,73,30.42,10.0,SSE,4.6,-,N/A,,Clear,150,2013-03-20 15:54:00
11:54 AM,10.9,1.9,67,30.40,10.0,Calm,Calm,-,N/A,,Clear,0,2013-03-20 16:54:00
12:54 PM,12.9,3.9,67,30.38,10.0,ENE,5.8,-,N/A,,Clear,70,2013-03-20 17:54:00
1:54 PM,15.1,3.0,59,30.35,10.0,East,10.4,-,N/A,,Clear,100,2013-03-20 18:54:00
2:54 PM,15.1,3.9,61,30.32,10.0,East,10.4,-,N/A,,Clear,90,2013-03-20 19:54:00
3:54 PM,14.0,6.1,71,30.31,10.0,East,9.2,-,N/A,,Clear,80,2013-03-20 20:54:00
4:54 PM,14.0,5.0,67,30.29,10.0,East,12.7,-,N/A,,Clear,80,2013-03-20 21:54:00
5:54 PM,12.0,3.0,67,30.28,10.0,East,12.7,-,N/A,,Clear,80,2013-03-20 22:54:00
6:54 PM,10.9,1.9,67,30.26,10.0,East,10.4,-,N/A,,Clear,90,2013-03-20 23:54:00
7:54 PM,7.0,1.0,77,30.27,10.0,East,10.4,-,N/A,,Clear,90,2013-03-21 00:54:00
8:54 PM,5.0,-0.9,76,30.26,10.0,East,10.4,-,N/A,,Clear,100,2013-03-21 01:54:00
9:54 PM,3.0,-2.9,76,30.24,10.0,East,10.4,-,N/A,,Clear,100,2013-03-21 02:54:00
10:54 PM,1.9,-2.9,80,30.22,10.0,ESE,10.4,-,N/A,,Clear,120,2013-03-21 03:54:00
11:54 PM,-0.0,-4.0,83,30.21,10.0,SE,6.9,-,N/A,,Clear,130,2013-03-21 04:54:00